Track ONEWEB-0385 now! 10-day predictions ONEWEB-0385 is classified as:
1 49311U 21090AJ 22143.91668981 -.00023898 00000-0 -24017-2 0 9998 2 49311 87.2023 214.7937 0002379 191.9339 199.9303 14.91513232 34430